Location: Parc des �les de St-Timoth�e
(45.2924°N, 74.0481°W)
Time: 16:49:47
(UTC-04:00)

ISS - All Passes

Search period start: 26 March 2017 00:00
Search period end: 05 April 2017 00:00
Orbit: 399 x 409 km, 51.6° (Epoch: 27 March)

Date Brightness Start Highest point End Pass type
(mag) Time Alt. Az. Time Alt. Az. Time Alt. Az.
26 Mar - 01:24:20 10° NW 01:27:14 28° N 01:30:09 10° ENE night (unlit)
26 Mar - 03:00:46 10° WNW 03:04:04 75° NNE 03:07:23 10° ESE night (unlit)
26 Mar - 04:37:55 10° W 04:40:13 18° SW 04:42:31 10° S night (unlit)
26 Mar - 21:18:00 10° SW 21:21:07 44° SE 21:24:16 10° ENE visible
26 Mar - 22:54:33 10° W 22:57:38 39° NNW 23:00:46 10° NE night (unlit)
27 Mar - 00:31:50 10° WNW 00:34:41 26° N 00:37:31 10° ENE night (unlit)
27 Mar - 02:08:26 10° NW 02:11:39 48° NNE 02:14:52 10° E night (unlit)
27 Mar - 03:45:04 10° WNW 03:48:02 30° SW 03:50:58 10° SSE night (unlit)
27 Mar - 20:26:09 10° SSW 20:28:53 25° SE 20:31:37 10° E visible
27 Mar - 22:01:57 10° WSW 22:05:10 55° NNW 22:08:25 10° NE visible
27 Mar - 23:39:15 10° WNW 23:42:06 26° N 23:44:57 10° NE night (unlit)
28 Mar - 01:16:04 10° NW 01:19:09 35° NNE 01:22:14 10° E night (unlit)
28 Mar - 02:52:31 10° WNW 02:55:45 54° SW 02:58:58 10° SE night (unlit)
28 Mar - 19:34:52 10° SSE 19:36:42 14° SE 19:38:31 10° E daylight
28 Mar - 21:09:29 10° WSW 21:12:44 88° NNW 21:16:01 10° ENE visible
28 Mar - 22:46:36 10° WNW 22:49:31 29° N 22:52:27 10° NE visible
29 Mar - 00:23:40 10° NW 00:26:36 29° N 00:29:33 10° ENE night (unlit)
29 Mar - 02:00:05 10° WNW 02:03:22 88° NNE 02:06:41 10° ESE night (unlit)
29 Mar - 03:37:32 10° W 03:39:26 15° SW 03:41:21 10° S night (unlit)
29 Mar - 20:17:11 10° SW 20:20:22 53° SE 20:23:34 10° ENE visible
29 Mar - 21:53:54 10° W 21:56:57 35° NNW 22:00:01 10° NE visible
29 Mar - 23:31:10 10° NW 23:34:00 26° N 23:36:51 10° ENE night (unlit)
30 Mar - 01:07:41 10° NW 01:10:56 55° NNE 01:14:11 10° ESE night (unlit)
30 Mar - 02:44:27 10° W 02:47:14 25° SW 02:50:00 10° SSE night (unlit)
30 Mar - 19:25:10 10° SSW 19:28:03 30° SE 19:30:58 10° ENE daylight
30 Mar - 21:01:14 10° W 21:04:25 48° NNW 21:07:37 10° NE visible
30 Mar - 22:38:34 10° WNW 22:41:23 26° N 22:44:13 10° ENE visible
31 Mar - 00:15:18 10° NW 00:18:25 39° NNE 00:21:32 10° E night (unlit)
31 Mar - 01:51:47 10° WNW 01:54:56 44° SW 01:58:06 10° SE night (unlit)
31 Mar - 18:33:36 10° S 18:35:49 17° SE 18:38:02 10° E daylight
31 Mar - 20:08:41 10° WSW 20:11:56 75° NNW 20:15:13 10° ENE visible
31 Mar - 21:45:54 10° WNW 21:48:46 28° N 21:51:39 10° NE visible
31 Mar - 23:22:52 10° NW 23:25:51 31° NNE 23:28:49 10° ENE visible
01 Apr - 00:59:16 10° WNW 01:02:33 79° SSW 01:05:51 10° SE night (unlit)
01 Apr - 02:37:13 10° WSW 02:38:32 12° SW 02:39:51 10° SSW night (unlit)
01 Apr - 19:16:18 10° SW 19:19:30 65° SSE 19:22:45 10° ENE daylight
01 Apr - 20:53:09 10° W 20:56:09 33° NNW 20:59:10 10° NE visible
01 Apr - 22:30:22 10° NW 22:33:13 27° N 22:36:05 10° ENE visible
02 Apr - 00:06:50 10° WNW 00:10:06 64° NNE 00:13:22 10° ESE night (unlit)
02 Apr - 01:43:46 10° W 01:46:19 21° SW 01:48:52 10° S night (unlit)
02 Apr - 18:24:07 10° SSW 18:27:08 36° SE 18:30:10 10° ENE daylight
02 Apr - 20:00:26 10° W 20:03:34 43° NNW 20:06:43 10° NE visible
02 Apr - 21:37:45 10° WNW 21:40:34 25° N 21:43:23 10° ENE visible
02 Apr - 23:14:24 10° NW 23:17:34 43° NNE 23:20:44 10° E visible
03 Apr - 00:50:57 10° WNW 00:54:01 36° SW 00:57:03 10° SSE night (unlit)
03 Apr - 17:32:20 10° S 17:34:50 21° SE 17:37:20 10° E daylight
03 Apr - 19:07:48 10° WSW 19:11:02 64° NNW 19:14:17 10° ENE daylight
03 Apr - 20:45:04 10° WNW 20:47:54 27° N 20:50:45 10° NE visible
03 Apr - 22:21:58 10° NW 22:24:58 33° NNE 22:27:59 10° E visible
03 Apr - 23:58:21 10° WNW 00:01:37 65° SSW 00:04:52 10° SE night (unlit)
04 Apr - 16:41:23 10° SSE 16:42:35 12° SE 16:43:46 10° ESE daylight
04 Apr - 18:15:18 10° SW 18:18:32 78° SSE 18:21:48 10° ENE daylight
04 Apr - 19:52:18 10° WNW 19:55:15 30° NNW 19:58:12 10° NE visible
04 Apr - 21:29:26 10° NW 21:32:19 28° N 21:35:12 10° ENE visible
04 Apr - 23:05:51 10° WNW 23:09:09 75° NNE 23:12:25 10° ESE visible
